Regional Weather Roundup
Issued by NWS

Home | Current Version | Previous Version | Text Only | Print | Product List | Glossary Off
Versions: 1 2 3 4 5 6 7 8 9 10 11 12 13 14 15 16 17 18 19 20 21 22 23 24 25 26 27 28 29 30 31 32 33 34 35 36 37 38 39 40 41 42 43 44 45 46 47 48 49 50

000
ASUS45 KTFX 300110
RWRMT
MONTANA REGIONAL WEATHER ROUNDUP
NATIONAL WEATHER SERVICE GREAT FALLS MT
700 PM MDT WED JUL 29 2015

NOTE: "FAIR" INDICATES FEW OR NO CLOUDS BELOW 12000 FEET WITH NO
SIGNIFICANT WEATHER AND/OR OBSTRUCTIONS TO VISIBILITY.

MTZ001>007-043-300200-
WEST OF THE DIVIDE

CITY           SKY/WX    TMP DP  RH WIND       PRES   REMARKS
KALISPELL      PTCLDY    85  32  15 W13       30.11F
MISSOULA         N/A     81  39  22 S6        30.17S
BUTTE          SUNNY     74  33  22 W7        30.29F
MULLAN PASS    SUNNY     70  35  27 CALM      30.34F
DEER LODGE       N/A     75  36  23 NE5       30.28S
EUREKA           N/A     82  36  18 W9        30.12S
HAMILTON         N/A     82  39  21 E8        30.18F
LIBBY            N/A     84  34  16 W5        30.14S
PLAINS           N/A     87  42  20 W10       30.12F
RONAN            N/A     81  41  24 SE5       30.18F
$$

MTZ008-052>055-300200-
SOUTHWEST MONTANA

CITY           SKY/WX    TMP DP  RH WIND       PRES   REMARKS
BOZEMAN        SUNNY     78  39  24 E3        30.23F
DILLON         SUNNY     78  43  28 N3        30.25S
W YELLOWSTONE  SUNNY     68  36  30 SW12      30.37F
TWIN BRIDGES     N/A     80  36  20 S1        30.21F
$$

MTZ009-010-012-014-046-048-049-054-300200-
EAST SLOPES AND CENTRAL MONTANA

CITY           SKY/WX    TMP DP  RH WIND       PRES   REMARKS
CUT BANK       PTSUNNY   79  35  20 W20       30.14S
GREAT FALLS    MOSUNNY   81  37  20 SW12G21   30.14S
MALMSTROM AFB  SUNNY     80  37  21 SW9       30.13F
HELENA         SUNNY     81  36  19 SW12      30.19R
CONRAD           N/A     80  42  25 W8        30.15S
$$

MTZ011-013-016-021-045-047-050-051-300200-
NORTH CENTRAL MONTANA

CITY           SKY/WX    TMP DP  RH WIND       PRES   REMARKS
HAVRE          PTSUNNY   83  39  21 W14       30.04F
LEWISTOWN      SUNNY     78  38  23 NW7       30.19S
CHINOOK          N/A     82  39  21 SW5       30.04F
FORT BENTON      N/A     82  37  20 SW8       30.09F
$$

MTZ017>020-022>027-061-062-300200-
NORTHEAST MONTANA

CITY           SKY/WX    TMP DP  RH WIND       PRES   REMARKS
GLASGOW        PTSUNNY   79  44  28 W7        30.07S
JORDAN           N/A     81  40  23 NW8       30.10F
SIDNEY         SUNNY    N/A N/A N/A W8        30.06S
WOLF POINT     MOSUNNY   83  46  27 SW7       30.06F
MALTA            N/A     81  45  28 SW9       30.03F
PLENTYWOOD       N/A     75  48  38 NW12G17   30.06R
POPLAR           N/A     79  48  34 W6        30.07S
SCOBEY           N/A     71  51  49 NW2       30.07S
$$

MTZ028>42-056>058-300200-
SOUTHCENTRAL AND SOUTHEAST MONTANA

CITY           SKY/WX    TMP DP  RH WIND       PRES   REMARKS
BAKER          MOSUNNY   79  39  23 NW13G21   30.14S
BILLINGS       SUNNY     83  32  16 NW13      30.17S
LIVINGSTON     SUNNY     79  36  21 W14       30.22F
MILES CITY     MOSUNNY   82  39  21 W10       30.11S
EKALAKA          N/A     77  34  21 W15       30.14S
FORSYTH          N/A     82  37  20 CALM      30.11F
LAUREL           N/A     83  31  15 W10       30.14S
ROUNDUP          N/A     80  36  20 W2        30.06S
$$

REGIONAL REPORTS...DAKOTAS

CITY           SKY/WX    TMP DP  RH WIND       PRES   REMARKS
WILLISTON      SUNNY     80  44  27 N14       30.06S
MINOT          SUNNY     77  48  35 W18G25    29.98S
DICKINSON      SUNNY     76  45  33 NW10      30.08S
BEACH          FAIR      75  41  29 NW10      30.13S
CROSBY         FAIR      73  50  43 NW10G21   30.03S
BISMARCK       SUNNY     80  47  31 NW13      30.03S
GRAND FORKS    PTCLDY    78  56  46 W13       29.87R
FARGO          PTCLDY    76  57  51 W10       29.92S
BUFFALO SD       N/A     80  37  21 NW17G24   30.08S
RAPID CITY     SUNNY     78  51  38 N7        30.16S
$$

REGIONAL REPORTS...WYOMING/IDAHO/WASHINGTON

CITY           SKY/WX    TMP DP  RH WIND       PRES   REMARKS
GILLETTE       SUNNY     79  32  18 VRB3      30.21S
SHERIDAN       SUNNY     81  36  19 CALM      30.20S
BUFFALO WY     SUNNY     77  38  24 N12       30.25S
CODY           SUNNY     77  30  18 E12       30.24S
YELLOWSTONE LA   N/A     67  28  23 VRB6      30.47R
IDAHO FALLS    SUNNY     80  32  17 VRB3      30.27F
SALMON         SUNNY     81  45  28 N6        30.17F
BOISE          SUNNY     88  29  12 NW6       30.13F
SPOKANE        FAIR      86  32  14 SW7       30.13F
$$

REGIONAL REPORTS...ALBERTA

CITY           SKY/WX    TMP DP  RH WIND       PRES   REMARKS
EDMONTON       MOSUNNY   68  46  45 W9        30.04F
CALGARY        MOSUNNY   75  37  25 W20G29    30.11R
LETHBRIDGE     MOSUNNY   81  41  24 N10G18    30.08R
MEDICINE HAT   PTSUNNY   81  39  22 W12       30.04S
CARDSTON         N/A     77  36  22 W12G21      N/A
MILK RIVER       N/A     81  37  21 W17G26      N/A
ONEFOUR          N/A     77  41  27 NW16        N/A
$$

REGIONAL REPORTS...SASKATCHEWAN

CITY           SKY/WX    TMP DP  RH WIND       PRES   REMARKS
SWIFT CURRENT  PTSUNNY   66  55  68 E5        30.04F
REGINA         MOSUNNY   72  54  53 NW12G18   30.00S
SASKATOON      CLOUDY    72  50  46 NW8       29.98S
CYPRESS HILLS    N/A     70  39  32 W6          N/A
VAL MARIE        N/A     77  41  27 W14G20      N/A
ROCKGLEN         N/A     72  48  43 W7          N/A
$$



USA.gov is the U.S. government's official web portal to all federal, state and local government web resources and services.